CAPE
0 0 0 1 42 0 0 0 0 78 196 119 89 52 36 123 105 154 187 197 139 132 103 180 267 418 378 53 0 122 8 94 23 64 333 260 149 100 196 635 329 10 161 318
0 0 0 0 0 0 0 0 9 134 345 97 57 49 36 65 166 145 62 100 162 182 245 234 249 439 383 262 40 0 0 0 283 288 492 357 386 385 649 627 546 205 304 282
0 0 0 0 0 0 0 0 45 60 351 241 123 52 42 36 56 124 68 78 91 95 138 205 231 347 453 365 121 41 0 11 560 544 547 361 404 479 587 453 473 669 882 467
0 0 0 0 0 0 0 1 96 137 104 79 97 1 66 51 33 47 98 72 98 85 113 187 134 220 392 404 263 213 0 127 633 620 609 386 267 357 513 545 634 1117 1175 793
0 0 0 0 0 0 0 102 197 122 104 72 74 40 19 81 38 21 53 126 137 104 140 128 111 142 251 417 309 341 111 37 525 660 638 486 447 543 666 510 529 1154 1134 946
0 0 0 0 0 0 61 84 90 60 70 0 0 37 0 69 67 37 23 45 127 87 127 137 165 129 115 275 373 412 393 206 403 647 747 580 566 446 646 460 525 1037 1104 926
0 0 0 0 0 19 32 26 31 52 34 0 0 33 5 15 5 91 80 16 30 102 114 137 115 116 98 117 186 248 436 434 452 549 628 707 708 763 419 445 759 1017 1028 917
0 0 0 0 0 0 12 9 0 0 0 0 0 0 0 13 120 65 41 27 49 8 93 195 145 131 131 146 251 287 319 468 460 486 512 763 646 621 712 734 761 829 1014 971
0 0 0 0 0 0 0 0 0 0 0 0 0 0 0 14 81 107 55 41 48 30 5 82 231 169 177 191 294 326 363 478 493 509 518 524 584 624 609 725 789 903 1035 1185
0 0 0 0 0 0 0 0 0 0 0 0 0 0 0 0 7 42 82 54 60 32 20 7 89 242 229 231 347 421 397 380 333 518 662 614 678 679 724 700 603 667 891 1022
0 0 0 0 0 0 0 0 0 0 0 0 0 0 0 0 4 62 47 34 48 41 19 32 39 160 266 231 283 404 487 467 448 484 695 644 686 715 762 764 705 741 814 814
0 0 0 0 0 0 0 0 0 0 0 0 0 0 0 21 19 37 242 207 190 59 45 25 29 70 208 271 328 340 430 493 440 490 621 594 645 719 735 764 773 697 684 822
0 0 0 0 0 0 0 0 0 0 0 0 0 0 0 75 50 45 52 231 125 58 183 83 82 42 104 143 287 451 518 511 503 563 508 535 546 609 565 577 658 733 720 780
0 0 0 0 0 0 0 0 0 0 0 0 0 0 0 22 43 39 144 216 21 26 105 214 106 9 10 55 98 164 381 446 700 697 599 564 570 545 537 622 646 530 592 619
0 0 0 0 0 0 0 0 0 0 0 0 0 0 0 0 23 25 3 98 0 60 15 48 124 94 16 57 61 51 115 206 378 437 646 621 631 578 631 657 595 530 484 591
0 0 0 0 0 0 0 0 0 0 0 0 0 0 0 0 8 2 0 34 0 31 40 48 101 151 147 156 223 304 251 230 395 408 323 249 517 643 599 712 630 538 479 492
0 0 0 0 0 0 0 0 0 0 0 0 0 0 2 9 11 0 0 0 58 0 116 266 448 390 290 204 190 193 163 232 308 508 374 346 492 509 545 706 809 578 536 533
0 0 0 0 0 0 0 0 0 0 0 0 0 0 25 0 7 0 0 0 0 5 0 142 360 251 159 92 127 223 290 177 200 361 571 590 597 561 593 608 721 739 798 661
0 0 0 0 0 0 0 0 0 0 0 1 15 37 11 15 0 0 0 0 0 0 0 119 302 183 108 65 110 267 371 286 257 269 417 657 678 618 687 593 636 779 714 714
0 0 0 0 0 0 0 0 0 0 0 42 35 26 34 13 0 0 0 36 33 99 235 205 141 70 54 86 265 200 254 279 171 288 272 434 569 628 597 610 798 814 1004 875
0 0 0 0 0 0 0 0 0 0 0 0 49 71 47 0 0 0 0 3 4 79 144 80 11 14 17 55 93 137 198 276 181 178 145 91 102 289 395 497 486 511 468 200
0 0 0 0 0 0 0 0 3 0 0 0 46 88 0 0 0 0 0 0 0 19 13 0 0 0 102 65 127 199 328 251 278 137 20 0 1 3 6 6 4 11 12 6
0 0 0 0 0 0 0 3 45 5 16 0 46 53 0 0 0 0 0 0 35 47 5 0 0 0 76 109 143 328 427 262 303 128 28 1 1 0 10 2 0 0 0 0
0 0 0 0 0 0 0 0 11 6 25 19 71 0 0 0 0 0 0 0 0 29 16 0 0 0 0 71 157 292 359 330 186 149 24 1 0 1 0 0 1 0 0 0
0 0 0 0 0 0 0 6 15 1 0 0 1 0 0 0 0 0 0 0 20 10 9 0 0 1 32 33 124 204 205 198 91 8 0 0 0 0 0 0 0 0 0 2
0 0 0 0 0 0 2 16 15 0 0 0 3 0 0 0 0 0 0 0 0 4 0 0 0 2 35 17 111 77 19 6 2 0 0 0 0 1 2 1 0 1 0 0
CIN
-0 -0 -0 -1 -45 -0 -0 -0 -0 -65 -76 -64 -60 -71 -77 -62 -52 -40 -114 -37 -45 -59 -59 -72 -77 -70 -73 -159 -0 -111 -98 -99 -140 -115 -67 -72 -66 -84 -71 -43 -95 -32 -122 -116
-0 -0 -0 -0 -0 -0 -0 -0 -29 -80 -69 -86 -89 -94 -123 -105 -52 -32 -49 -63 -57 -52 -53 -70 -88 -77 -82 -85 -146 -0 -0 -0 -75 -68 -61 -65 -54 -58 -41 -47 -63 -99 -107 -115
-0 -0 -0 -0 -0 -0 -0 -0 -53 -39 -72 -88 -81 -78 -121 -134 -115 -70 -61 -84 -66 -71 -56 -65 -84 -75 -75 -80 -97 -134 -0 -31 -51 -57 -59 -76 -70 -63 -49 -48 -41 -48 -58 -84
-0 -0 -0 -0 -0 -0 -0 -10 -57 -43 -42 -11 -91 -2 -96 -128 -119 -134 -62 -95 -90 -98 -69 -59 -80 -85 -82 -79 -88 -93 -0 -89 -47 -50 -47 -47 -27 -19 -26 -31 -29 -34 -51 -66
-0 -0 -0 -0 -0 -0 -0 -109 -63 -57 -34 -40 -51 -34 -55 -131 -111 -149 -125 -91 -98 -109 -81 -76 -88 -97 -88 -74 -77 -74 -99 -96 -51 -44 -39 -35 -31 -24 -24 -37 -35 -30 -47 -64
-0 -0 -0 -0 -0 -0 -141 -104 -90 -75 -41 -0 -0 -30 -0 -42 -58 -94 -163 -130 -109 -123 -111 -95 -84 -98 -99 -80 -79 -69 -75 -70 -65 -43 -31 -35 -31 -32 -25 -32 -30 -22 -29 -50
-0 -0 -0 -0 -13 -140 -87 -26 -8 -2 -3 -0 -0 -39 -11 -63 -78 -99 -129 -181 -191 -166 -127 -114 -114 -118 -127 -131 -114 -97 -80 -55 -63 -51 -41 -34 -30 -29 -19 -30 -23 -24 -26 -36
-0 -0 -0 -0 -0 -0 -33 -26 -0 -0 -0 -0 -0 -0 -0 -116 -115 -167 -220 -240 -235 -201 -174 -126 -124 -124 -126 -137 -130 -115 -94 -68 -68 -58 -52 -37 -33 -29 -25 -24 -21 -21 -22 -20
-0 -0 -0 -0 -0 -0 -0 -0 -0 -0 -0 -0 -0 -0 -0 -46 -117 -112 -167 -167 -196 -213 -247 -165 -103 -116 -118 -148 -145 -124 -100 -82 -83 -63 -55 -46 -41 -37 -29 -30 -32 -28 -30 -22
-0 -0 -0 -0 -0 -0 -0 -0 -0 -0 -0 -0 -0 -0 -0 -0 -28 -128 -118 -145 -172 -243 -238 -240 -139 -108 -115 -134 -136 -143 -116 -97 -86 -72 -59 -47 -41 -37 -38 -35 -36 -41 -36 -38
-0 -0 -0 -0 -0 -0 -0 -0 -0 -0 -0 -0 -0 -0 -0 -4 -62 -91 -137 -156 -139 -202 -252 -192 -146 -113 -82 -114 -123 -131 -134 -113 -93 -74 -61 -56 -47 -37 -35 -31 -35 -37 -40 -47
-0 -0 -0 -0 -0 -0 -0 -0 -0 -0 -0 -0 -0 -0 -0 -89 -131 -136 -97 -117 -133 -189 -172 -174 -130 -104 -82 -84 -110 -123 -117 -116 -116 -89 -74 -73 -55 -38 -31 -30 -33 -36 -38 -38
-0 -0 -0 -0 -0 -0 -0 -0 -0 -0 -0 -0 -0 -0 -0 -148 -151 -174 -158 -125 -175 -185 -147 -160 -115 -95 -91 -93 -105 -104 -112 -106 -107 -109 -104 -96 -79 -63 -47 -43 -40 -38 -43 -40
-0 -0 -0 -0 -0 -0 -0 -0 -0 -0 -0 -0 -0 -0 -0 -75 -107 -152 -147 -158 -238 -240 -194 -136 -139 -164 -149 -142 -145 -128 -99 -122 -80 -92 -97 -90 -95 -85 -81 -56 -53 -55 -50 -45
-0 -0 -0 -0 -0 -0 -0 -0 -0 -0 -0 -0 -0 -0 -0 -0 -62 -166 -50 -201 -0 -202 -231 -170 -123 -101 -123 -160 -190 -183 -157 -145 -120 -106 -86 -107 -109 -109 -102 -84 -63 -64 -66 -47
-0 -0 -0 -0 -0 -0 -0 -0 -0 -0 -0 -0 -0 -0 -0 -0 -291 -42 -0 -190 -2 -171 -181 -179 -125 -126 -135 -142 -135 -130 -133 -153 -130 -120 -124 -173 -127 -131 -135 -110 -89 -68 -59 -59
-0 -0 -0 -0 -0 -0 -0 -0 -0 -0 -0 -0 -0 -0 -32 -115 -141 -0 -0 -0 -148 -0 -147 -86 -82 -100 -117 -156 -170 -155 -169 -167 -154 -124 -127 -124 -111 -113 -112 -107 -78 -79 -60 -52
-0 -0 -0 -0 -0 -0 -0 -0 -0 -0 -0 -0 -0 -0 -119 -0 -148 -19 -0 -0 -0 -73 -11 -149 -99 -115 -144 -180 -176 -164 -137 -169 -167 -140 -115 -108 -109 -97 -84 -72 -60 -74 -54 -48
-0 -0 -0 -0 -0 -0 -0 -0 -0 -0 -0 -9 -51 -82 -101 -126 -0 -0 -0 -0 -0 -0 -0 -156 -127 -160 -187 -184 -147 -109 -98 -116 -130 -128 -98 -44 -37 -52 -49 -56 -61 -54 -59 -50
-0 -0 -0 -0 -0 -0 -0 -0 -0 -0 -0 -35 -51 -44 -60 -86 -0 -0 -0 -176 -209 -187 -130 -123 -142 -201 -254 -194 -88 -110 -112 -107 -136 -77 -71 -24 -7 -5 -30 -49 -31 -43 -27 -30
-0 -0 -0 -0 -0 -0 -0 -0 -0 -0 -0 -0 -35 -44 -60 -0 -0 -0 -0 -26 -34 -129 -137 -135 -155 -168 -203 -207 -142 -138 -119 -72 -130 -102 -77 -48 -37 -13 -20 -34 -51 -49 -54 -89
-0 -0 -0 -0 -0 -0 -0 -0 -15 -0 -0 -0 -40 -47 -0 -0 -0 -0 -0 -0 -0 -95 -44 -0 -0 -0 -139 -179 -132 -104 -79 -59 -78 -125 -114 -0 -0 -43 -94 -128 -170 -175 -191 -63
-0 -0 -0 -0 -0 -0 -0 -51 -66 -79 -36 -0 -41 -50 -0 -0 -0 -0 -0 -0 -114 -83 -81 -0 -0 -0 -106 -102 -91 -39 -51 -84 -25 -109 -101 -0 -0 -0 -31 -11 -0 -0 -0 -0
-0 -0 -0 -0 -0 -0 -0 -0 -127 -132 -47 -68 -55 -0 -0 -0 -0 -0 -0 -0 -0 -118 -154 -0 -0 -0 -0 -124 -74 -53 -57 -77 -77 -83 -105 -0 -0 -0 -0 -0 -0 -0 -0 -0
-0 -0 -0 -0 -0 -0 -0 -129 -93 -23 -0 -0 -67 -0 -0 -0 -0 -0 -0 -0 -135 -161 -210 -0 -0 -0 -203 -194 -106 -79 -108 -125 -140 -107 -0 -0 -0 -0 -0 -0 -0 -0 -0 -0
-0 -0 -0 -0 -0 -0 -18 -84 -135 -0 -0 -0 -63 -0 -0 -0 -0 -0 -0 -0 -0 -58 -0 -0 -0 -0 -195 -216 -107 -138 -137 -57 -68 -0 -0 -0 -0 -0 -0 -0 -0 -0 -0 -0
Wind_Speed
11 8 6 10 12 15 16 16 17 14 12 9 19 10 14 16 20 19 16 24 23 26 25 27 26 25 25 25 25 26 26 26 24 24 24 22 21 20 21 20 18 18 19 19
7 9 12 17 20 20 19 19 16 13 11 13 14 14 6 9 16 17 11 12 24 29 26 27 28 27 27 27 26 26 27 26 26 25 23 21 20 21 21 22 19 18 18 17
6 17 17 19 19 17 19 17 14 14 11 15 17 16 15 15 19 14 1 7 24 28 26 27 28 29 29 29 28 27 28 23 27 25 22 21 18 17 18 23 21 21 22 18
15 12 10 3 26 21 23 14 10 12 13 16 17 19 17 17 21 21 22 34 19 26 28 29 29 29 31 31 29 28 29 25 27 28 25 25 24 21 23 21 19 20 21 19
11 8 5 6 20 5 19 10 10 12 15 18 18 19 16 16 21 25 26 28 22 27 26 27 29 29 29 30 31 30 29 27 27 26 28 26 24 23 21 23 23 19 19 19
17 14 20 19 15 10 10 10 12 15 18 19 20 20 18 17 18 19 28 29 17 12 27 29 29 29 30 29 30 31 31 30 29 26 28 29 26 25 22 22 23 22 21 21
15 16 16 7 11 12 16 14 16 19 19 21 19 19 20 20 20 20 23 26 26 17 13 26 26 31 34 32 29 29 30 30 31 28 27 29 29 27 26 25 23 22 24 24
10 12 11 13 16 14 10 18 17 20 21 19 17 19 19 20 20 20 20 21 28 19 15 19 26 25 26 28 31 30 29 32 7 17 29 29 31 29 28 27 25 26 24 23
10 15 12 15 13 10 12 13 16 14 15 18 18 19 7 19 22 22 20 16 15 6 22 11 10 26 24 23 28 32 31 31 5 10 7 33 32 31 30 28 26 25 26 24
11 10 11 10 10 14 11 9 14 16 17 20 18 20 17 15 20 21 23 19 18 21 26 31 11 15 13 35 34 35 35 35 12 6 4 24 31 33 32 29 30 28 28 28
8 13 13 10 16 12 12 13 15 13 17 18 20 20 13 11 15 18 18 18 20 21 21 25 30 8 31 31 33 32 23 27 27 25 27 29 30 31 31 32 31 30 29 28
11 14 16 17 18 16 16 17 12 16 14 15 19 22 14 11 12 14 14 16 18 20 23 23 22 15 14 27 30 23 25 34 21 23 32 32 32 30 31 33 32 31 32 31
6 15 14 16 15 16 18 18 17 14 12 8 13 18 12 10 9 12 12 17 18 20 20 16 17 17 12 19 28 34 32 37 37 24 20 33 35 36 34 34 32 31 32 32
8 15 17 23 21 19 18 16 11 12 6 8 7 14 13 8 9 10 12 15 18 18 20 17 16 16 15 22 31 36 38 32 26 35 31 29 35 37 36 25 18 15 19 23
17 20 20 20 19 19 17 15 13 14 14 11 15 9 17 17 11 9 14 15 16 18 17 17 16 16 17 19 24 27 29 26 32 33 37 32 29 33 33 29 24 26 22 23
18 19 18 19 18 17 17 17 16 13 15 12 20 25 21 18 11 10 11 11 13 18 19 17 16 16 17 18 22 25 29 30 30 33 42 31 32 28 32 29 25 23 23 24
16 16 17 22 17 17 20 13 11 12 14 16 13 18 21 14 12 13 13 13 12 14 18 17 19 18 22 24 24 25 26 27 29 32 41 35 25 32 23 28 27 24 21 20
14 14 16 19 15 20 21 19 15 12 14 11 18 19 14 14 15 15 14 14 13 14 18 21 23 24 24 25 27 26 25 24 28 31 30 33 33 32 35 29 26 24 23 21
17 15 17 19 18 23 20 15 11 11 14 12 12 11 11 15 17 16 17 16 15 16 18 21 24 27 28 28 28 29 28 25 25 25 25 28 28 31 23 23 26 23 22 22
16 17 19 17 21 22 18 11 11 15 16 8 9 11 13 16 21 21 19 19 18 19 21 24 26 28 30 30 28 29 30 26 25 25 24 22 25 26 25 25 24 22 22 22
20 20 20 20 22 22 16 12 8 11 16 8 7 11 11 17 20 20 19 21 23 21 21 23 26 28 31 29 28 29 29 24 22 23 20 17 19 20 21 22 21 21 20 19
19 19 22 21 22 25 9 7 8 12 12 12 8 9 11 16 19 21 21 24 23 24 25 25 26 27 28 28 29 29 27 25 18 17 15 15 15 17 17 16 18 16 16 18
24 20 19 15 20 15 2 4 5 10 11 12 9 10 12 17 21 23 26 23 20 20 22 24 27 27 28 28 28 27 25 21 17 13 14 13 15 19 21 21 21 21 21 19
21 19 18 16 14 11 3 7 9 8 9 10 9 10 12 18 22 24 24 22 20 19 21 22 24 27 28 28 27 23 23 18 13 11 11 11 12 14 16 16 18 18 16 19
20 16 17 20 18 12 12 5 9 8 11 10 9 10 12 16 21 23 25 24 19 15 17 22 25 26 27 27 25 21 19 13 10 8 8 10 12 12 13 16 17 18 19 16
22 20 21 22 11 11 11 4 6 8 7 7 6 10 13 16 21 23 26 25 22 18 18 21 23 25 26 26 21 16 12 8 6 7 8 9 11 11 10 9 9 14 10 7
Wind_Direction
304 318 326 319 314 317 329 328 321 326 328 356 240 19 115 136 158 153 146 164 163 175 178 198 189 187 190 191 178 175 176 187 182 156 174 181 205 216 222 226 236 233 220 224
330 308 163 278 269 278 291 311 326 321 329 331 346 352 137 13 151 158 141 157 170 193 186 188 198 199 199 196 200 193 172 168 187 190 194 208 207 212 218 218 237 243 241 239
323 288 279 265 270 283 284 309 336 327 332 315 321 321 317 303 237 147 221 245 172 187 184 186 189 200 202 196 192 200 178 156 192 209 216 213 225 227 232 207 220 228 223 239
286 310 311 69 204 258 261 330 344 346 329 313 313 311 309 298 275 257 175 220 170 181 187 190 189 196 196 197 205 201 198 165 197 195 209 203 190 209 209 229 230 228 228 238
323 358 74 319 248 33 267 357 345 332 310 309 314 299 316 319 281 207 192 187 177 184 179 179 184 188 190 189 195 199 207 177 186 179 200 206 218 218 222 218 218 241 244 244
216 264 214 234 265 101 48 350 323 294 290 298 309 301 300 312 307 273 219 199 175 172 184 187 186 189 193 182 188 196 202 202 190 177 190 206 219 219 229 231 230 235 241 244
269 254 253 347 319 308 280 299 299 290 292 295 315 300 294 297 295 283 252 203 190 176 177 183 183 186 200 191 183 185 189 193 200 186 181 197 213 222 222 232 238 242 239 244
311 296 304 297 288 309 318 277 294 291 291 305 340 305 303 296 292 284 272 212 209 180 180 178 183 181 180 183 193 188 185 197 254 165 191 195 210 217 220 232 242 241 245 246
310 292 311 302 319 333 319 305 304 329 330 318 324 325 183 299 286 283 291 323 309 152 183 211 227 186 180 179 183 187 187 190 179 160 164 217 213 218 225 234 240 244 242 250
320 322 329 352 348 326 325 3 305 303 314 306 319 314 333 10 302 296 287 308 293 281 259 252 202 253 223 239 231 223 224 220 214 220 236 255 237 228 233 242 233 236 238 241
341 311 317 328 301 314 324 314 301 320 305 311 307 310 12 37 7 328 310 306 297 295 290 270 254 216 248 246 241 241 253 250 251 257 251 250 248 245 247 244 244 237 241 240
308 312 299 295 298 305 301 297 320 309 325 322 318 311 10 32 26 7 17 324 314 310 291 288 278 272 250 251 247 255 258 237 265 265 247 246 249 255 253 248 247 247 241 243
313 297 300 293 303 306 294 292 296 315 338 357 339 331 8 22 38 23 19 329 320 326 314 323 293 277 254 254 251 244 250 232 239 265 269 251 243 240 253 251 254 256 254 252
300 291 289 277 290 297 301 301 315 320 356 354 351 343 354 16 4 7 3 341 324 331 327 333 313 291 269 255 245 242 240 256 269 250 259 263 256 247 249 270 276 273 274 273
281 279 290 298 302 303 302 303 314 316 321 328 324 334 329 332 345 0 340 336 325 320 336 334 323 305 273 270 265 263 264 272 264 257 247 262 268 257 258 265 271 270 272 272
277 283 292 295 305 308 307 307 311 320 322 322 310 298 312 321 339 346 352 356 338 314 314 326 321 311 288 281 276 272 269 270 266 261 249 270 264 266 260 264 269 272 274 271
279 283 285 287 301 306 306 318 325 320 315 314 315 315 311 328 325 328 336 341 343 337 319 322 306 313 287 286 285 281 279 276 271 269 257 267 269 266 273 268 267 269 270 274
277 280 286 289 297 293 308 316 325 331 328 323 309 309 322 319 326 332 338 337 339 335 324 310 303 295 299 295 285 286 285 286 280 278 276 270 267 267 263 266 266 269 271 271
272 274 281 284 288 297 309 322 332 334 325 329 327 328 331 320 315 322 332 334 333 329 321 314 303 298 291 288 289 279 280 284 292 292 288 274 268 262 260 262 268 269 270 272
274 273 274 287 292 300 319 332 332 332 316 319 325 322 321 318 302 309 327 330 330 327 320 309 304 297 293 289 287 284 280 285 289 293 293 285 270 261 260 263 264 270 271 273
262 268 270 282 292 306 321 336 355 327 324 332 321 320 323 313 310 319 326 321 320 325 323 315 305 297 291 288 286 284 283 286 291 296 302 291 274 266 265 265 264 265 268 274
258 262 273 280 288 296 332 350 331 335 333 326 328 328 322 319 321 321 321 317 318 318 316 315 308 302 302 293 285 284 284 286 294 303 308 294 278 270 269 270 268 268 267 270
259 269 273 280 294 320 120 347 344 345 334 329 334 331 327 321 321 321 316 321 321 321 322 317 305 301 302 296 286 283 285 292 292 304 307 301 291 282 277 275 273 270 266 265
263 271 278 289 299 311 297 311 328 335 335 343 343 344 337 327 323 322 324 327 326 325 319 318 313 305 300 299 290 286 286 292 289 300 317 312 314 307 292 295 287 280 270 262
267 272 279 287 302 306 309 291 317 319 321 331 341 349 345 339 332 326 326 331 335 335 332 321 311 307 303 302 294 293 291 292 277 299 318 325 330 327 324 310 305 299 291 276
268 277 278 286 289 294 308 296 304 306 318 327 342 342 344 342 335 329 324 329 331 329 326 321 316 309 302 300 302 301 298 293 269 292 309 331 346 346 347 354 358 358 338 338